Wind_Speed
26 22 26 20 18 15 16 17 18 12 9 19 21 24 16 19 19 20 20 22 21 24 26 27 30 22 21 23 28 27 30 30 28 26 24 19 23 35 33 33 34 39 42 43
22 31 23 18 15 16 17 18 17 14 12 14 22 23 11 15 19 17 12 15 21 29 32 32 32 26 24 25 27 28 29 30 30 29 31 34 39 32 30 32 37 40 42 41
21 15 6 21 15 15 15 16 13 17 15 12 16 13 10 14 14 13 13 17 23 28 35 36 32 25 21 28 29 23 27 25 30 32 33 30 30 33 32 33 35 36 37 36
18 20 19 13 16 12 16 13 14 18 20 11 11 7 12 8 8 9 8 11 17 30 38 40 31 24 19 21 27 21 13 17 24 28 29 30 31 31 30 30 32 34 33 34
17 5 8 15 18 11 15 11 18 23 13 17 8 9 10 7 9 14 9 9 18 24 25 30 30 23 16 17 16 10 9 11 14 17 22 25 26 26 27 29 29 30 32 33
26 23 17 14 16 16 18 21 21 17 18 8 12 10 7 11 14 14 11 15 21 22 23 24 23 18 15 13 9 8 9 11 13 15 19 21 22 22 25 27 29 30 30 31
26 26 25 23 23 19 17 18 8 5 6 6 9 8 8 14 17 15 16 13 21 24 20 16 17 15 12 6 9 9 11 15 15 17 20 22 22 24 26 28 29 29 29 31
15 17 23 21 23 21 18 15 13 6 4 9 11 7 5 10 17 17 18 21 24 25 19 16 15 14 8 9 11 11 13 15 16 15 14 17 19 23 25 27 26 27 29 29
9 12 12 14 20 21 16 14 19 22 15 5 9 14 21 19 13 13 16 25 24 23 18 17 15 13 11 12 12 8 12 15 14 12 14 17 20 23 26 26 26 28 29 29
28 31 24 13 15 19 21 20 13 13 4 4 5 7 12 21 19 15 9 20 26 23 18 17 16 14 14 11 10 10 13 14 13 13 16 19 23 28 27 27 29 28 29 28
31 31 41 33 28 21 20 23 19 20 14 8 3 10 17 14 17 18 13 17 22 15 13 15 15 12 12 10 11 14 15 16 14 15 19 25 28 30 28 29 28 28 27 27
6 10 32 39 35 31 24 25 22 15 11 14 16 28 24 18 12 16 18 18 10 12 12 16 14 15 12 10 12 14 17 18 17 19 23 27 30 29 29 28 28 26 26 27
8 3 8 20 31 31 28 29 26 27 27 30 15 23 18 19 13 14 19 18 12 14 18 22 19 14 14 17 14 14 19 20 19 23 27 29 31 30 30 28 26 26 27 27
13 17 14 17 19 21 23 23 28 26 33 32 39 38 35 29 18 15 17 20 20 19 20 21 19 11 15 17 18 21 20 22 23 25 28 30 31 31 29 26 27 27 26 25
10 19 23 21 20 23 32 35 29 31 30 25 33 35 36 29 29 29 26 23 25 28 26 25 22 14 14 18 19 20 23 24 24 26 29 30 29 28 25 26 26 25 25 24
11 11 16 31 21 19 21 36 39 42 36 29 16 29 36 23 24 23 24 24 24 28 30 26 23 14 15 17 17 21 23 23 24 26 28 27 27 25 24 24 24 24 25 24
26 21 16 27 27 26 24 37 40 42 39 31 32 28 22 22 24 23 21 20 19 20 25 26 15 11 14 13 17 20 21 22 24 26 26 27 24 23 23 24 25 24 24 24
29 22 21 27 20 7 25 18 30 38 37 33 34 31 31 23 21 25 20 13 19 19 24 14 14 15 14 14 16 19 21 22 24 25 26 23 21 23 24 24 25 25 25 26
33 23 26 21 14 26 37 31 12 18 33 38 38 34 32 31 21 21 22 20 14 19 21 12 14 15 13 14 17 19 21 23 24 24 22 20 21 23 24 24 24 24 25 27
30 33 29 30 12 7 38 36 31 23 23 29 30 31 27 31 34 24 25 25 23 22 20 15 13 10 12 15 19 20 21 22 22 20 18 20 22 23 23 24 24 25 26 27
13 27 37 38 25 33 41 23 19 21 41 25 27 26 27 28 31 25 28 28 23 19 16 13 9 11 16 18 19 20 21 21 19 17 19 20 22 23 23 24 24 24 25 27
27 29 28 39 33 30 38 24 32 35 31 32 33 32 33 28 27 27 26 24 24 21 14 9 12 15 19 20 18 20 20 18 16 17 18 20 21 22 23 24 24 25 26 28
25 34 40 33 31 41 35 23 30 31 30 29 24 24 24 23 29 29 25 26 23 16 12 17 19 18 19 18 18 17 15 15 15 16 18 19 21 23 24 24 23 24 26 29
25 27 33 35 51 46 42 34 28 30 32 29 27 22 20 27 31 32 27 23 14 11 17 17 18 16 16 13 14 14 14 14 14 16 19 21 21 22 24 24 24 24 26 28
26 32 28 34 42 46 35 38 36 39 32 25 22 20 22 31 33 29 31 27 14 17 24 20 16 15 11 12 13 13 12 13 14 17 18 20 22 22 22 22 23 25 26 29
26 26 33 41 30 30 42 35 39 37 32 31 23 22 21 29 36 29 26 23 20 22 21 17 14 11 10 12 11 11 11 12 14 16 19 20 21 22 21 22 23 25 27 28
Wind_Direction
201 215 223 226 231 235 259 262 279 266 312 314 324 314 271 232 237 248 240 240 230 235 224 226 234 241 242 235 247 273 267 284 262 265 265 268 291 306 295 288 289 294 298 303
208 225 228 234 234 244 254 256 260 291 337 312 316 313 256 230 248 243 249 226 231 225 225 232 234 244 249 248 260 270 276 280 264 260 271 278 283 291 293 293 291 298 300 301
218 221 246 237 235 236 232 248 270 302 328 308 298 297 264 264 236 215 219 226 232 231 233 233 235 247 247 248 253 266 274 268 264 264 272 274 277 286 290 293 298 296 294 294
246 247 248 230 236 239 269 225 280 295 300 311 325 289 301 288 269 246 256 255 217 227 230 232 241 241 241 247 254 266 261 264 262 265 262 275 285 291 295 292 290 289 295 300
225 228 232 237 221 245 250 277 290 296 266 296 291 299 293 282 259 291 298 260 220 213 215 222 230 234 233 242 244 256 278 275 271 270 274 282 285 285 285 285 288 297 301 303
243 240 253 253 243 262 265 290 291 270 271 280 291 271 256 277 303 290 250 220 213 202 194 198 209 208 207 200 224 258 279 296 297 291 285 286 285 287 293 298 301 303 302 300
244 249 248 250 255 233 263 288 283 290 274 226 268 264 256 264 293 287 253 249 230 200 193 190 191 193 189 223 255 265 295 306 304 300 299 299 299 302 303 304 303 303 301 304
258 270 246 232 249 257 270 277 247 226 219 253 270 246 231 290 289 295 236 249 222 212 194 186 189 191 204 227 247 277 296 304 302 309 315 309 303 303 303 301 301 308 311 314
233 247 271 254 245 251 261 279 277 266 252 270 250 256 275 285 303 314 245 226 217 201 197 190 194 193 214 228 250 280 305 305 304 307 315 318 314 310 310 310 313 315 317 315
253 254 265 280 269 251 256 268 281 246 156 241 250 235 260 287 283 285 275 215 202 202 203 196 201 215 220 238 276 305 307 301 293 303 313 314 318 316 314 319 318 318 317 316
247 252 267 266 267 267 255 249 261 257 247 182 219 258 268 303 274 276 246 193 202 216 217 209 220 222 235 259 297 307 305 293 292 304 313 317 320 315 321 319 319 318 316 318
235 261 257 265 269 268 265 266 269 245 249 252 247 256 262 279 271 252 235 211 229 231 233 218 217 227 239 264 289 301 297 283 292 305 313 317 317 319 321 320 319 317 318 317
278 271 316 277 264 263 269 263 261 265 270 257 244 257 249 252 256 234 235 225 237 238 222 219 216 223 272 273 276 290 288 293 298 310 315 317 317 320 319 318 317 319 317 317
275 271 256 260 283 283 272 267 260 258 253 267 257 257 259 257 237 236 235 233 237 249 246 231 219 234 282 269 272 279 301 312 310 312 314 314 315 317 316 315 317 315 315 316
272 273 260 265 291 302 260 259 261 238 247 267 268 255 261 262 262 256 263 247 242 239 241 238 233 271 283 264 275 297 312 313 310 309 308 310 312 313 313 316 315 314 316 319
247 268 271 269 270 300 280 250 252 251 260 262 268 263 257 267 264 256 251 247 248 250 243 231 247 279 253 257 284 304 309 305 305 304 307 309 310 312 315 315 314 318 323 322
256 269 293 290 270 291 287 253 249 253 256 254 258 268 273 268 267 267 260 257 245 242 233 234 267 242 240 265 292 300 303 301 303 306 306 308 311 315 315 315 318 322 323 320
263 261 268 279 303 256 258 259 256 256 255 257 260 266 268 275 270 264 263 246 231 212 222 225 226 236 248 267 283 300 297 302 304 303 306 311 314 314 316 320 322 321 320 319
252 259 254 256 245 265 254 247 278 269 260 256 258 262 265 263 267 254 242 224 206 193 199 212 207 223 242 268 290 294 298 299 300 305 309 312 314 315 320 322 320 319 318 317
251 249 243 246 231 241 259 253 244 269 274 250 255 259 265 263 255 267 261 229 189 183 199 204 220 230 262 281 290 292 291 297 304 308 310 313 314 320 323 321 321 321 320 321
256 244 234 244 242 254 256 252 254 248 246 253 252 262 265 263 258 261 250 225 190 190 198 217 246 261 270 278 284 286 296 303 306 309 312 312 318 323 323 322 322 320 320 321
250 252 253 243 237 254 251 251 240 249 265 266 267 270 265 256 255 242 230 212 201 201 209 245 267 260 270 273 281 293 298 300 304 308 311 319 322 323 323 322 322 323 325 327
256 246 253 253 248 256 253 255 250 248 253 258 261 259 268 258 229 222 212 208 195 203 235 253 257 258 265 274 289 290 291 297 301 309 317 320 322 324 322 322 325 328 328 327
259 255 251 259 250 251 252 265 245 241 241 245 252 256 261 235 214 215 215 193 184 204 233 259 249 252 264 275 278 284 289 296 305 312 317 318 321 323 324 328 333 330 327 325
263 269 262 257 253 252 253 246 247 242 246 243 243 247 239 220 217 208 199 188 218 247 232 245 240 246 255 269 274 283 288 296 307 316 320 321 324 327 331 333 328 327 327 326
267 273 262 259 255 255 249 241 221 236 237 243 247 225 208 219 210 203 227 240 211 214 223 226 228 237 251 265 272 279 288 300 313 319 323 324 329 334 336 331 330 332 328 330
Height
3163 3164 3164 3168 3170 3171 3172 3173 3173 3174 3176 3174 3171 3166 3164 3166 3170 3172 3174 3176 3178 3177 3179 3182 3184 3186 3184 3185 3186 3187 3187 3186 3186 3186 3186 3185 3184 3183 3181 3179 3177 3173 3169 3165
3161 3158 3164 3167 3168 3169 3170 3170 3171 3172 3173 3172 3169 3165 3162 3166 3168 3170 3171 3172 3173 3174 3176 3179 3181 3182 3183 3183 3184 3184 3184 3182 3181 3182 3183 3182 3181 3180 3177 3174 3170 3165 3162 3158
3157 3160 3161 3164 3166 3167 3168 3168 3168 3170 3169 3170 3168 3165 3163 3165 3165 3167 3168 3170 3172 3173 3172 3174 3179 3181 3181 3182 3184 3185 3184 3180 3181 3181 3181 3180 3178 3176 3172 3168 3164 3160 3157 3154
3155 3156 3158 3161 3162 3166 3165 3168 3168 3168 3170 3168 3168 3165 3162 3162 3163 3165 3167 3167 3167 3168 3168 3173 3177 3179 3179 3179 3181 3183 3181 3181 3180 3180 3178 3176 3173 3170 3166 3163 3160 3156 3152 3146
3152 3154 3155 3157 3159 3164 3163 3166 3165 3164 3165 3164 3165 3165 3159 3159 3160 3162 3164 3164 3165 3167 3168 3171 3175 3177 3176 3177 3179 3180 3179 3179 3177 3176 3175 3172 3169 3166 3162 3160 3156 3151 3145 3140
3149 3152 3153 3154 3156 3159 3160 3160 3161 3161 3160 3160 3161 3162 3158 3157 3157 3158 3159 3161 3164 3164 3166 3169 3172 3173 3174 3175 3177 3176 3175 3174 3173 3171 3170 3167 3165 3161 3158 3153 3148 3144 3140 3136
3146 3146 3149 3151 3151 3154 3156 3158 3158 3158 3157 3158 3159 3157 3155 3155 3154 3154 3155 3157 3159 3162 3164 3166 3168 3170 3171 3172 3172 3173 3173 3172 3170 3169 3166 3162 3159 3155 3151 3147 3143 3139 3135 3130
3144 3142 3144 3147 3149 3152 3153 3155 3155 3158 3157 3151 3154 3151 3149 3150 3150 3148 3150 3153 3156 3158 3161 3164 3166 3168 3168 3169 3171 3170 3169 3168 3166 3162 3160 3157 3154 3151 3148 3144 3139 3133 3126 3120
3140 3139 3140 3143 3147 3149 3148 3148 3150 3148 3148 3148 3147 3146 3146 3146 3146 3146 3145 3148 3153 3157 3158 3160 3164 3164 3165 3167 3168 3166 3165 3163 3161 3157 3155 3153 3150 3147 3142 3137 3131 3125 3120 3115
3138 3137 3137 3139 3141 3143 3144 3147 3146 3144 3146 3149 3142 3141 3141 3143 3143 3144 3144 3146 3151 3155 3157 3159 3160 3160 3162 3165 3164 3162 3160 3158 3156 3153 3150 3148 3144 3140 3136 3129 3124 3119 3114 3110
3134 3135 3126 3134 3133 3136 3140 3140 3141 3142 3139 3139 3143 3137 3138 3138 3139 3140 3142 3144 3149 3153 3154 3155 3156 3159 3161 3161 3159 3156 3154 3152 3150 3149 3146 3143 3138 3135 3129 3124 3119 3114 3109 3105
3129 3128 3125 3125 3128 3132 3133 3134 3135 3136 3135 3133 3132 3129 3134 3136 3136 3138 3141 3145 3148 3150 3151 3153 3155 3156 3157 3156 3155 3153 3151 3150 3147 3145 3142 3137 3133 3128 3123 3119 3114 3109 3104 3099
3126 3126 3124 3119 3123 3125 3125 3128 3130 3130 3130 3126 3131 3126 3131 3132 3133 3136 3139 3142 3145 3146 3147 3148 3150 3152 3154 3153 3151 3149 3149 3146 3142 3138 3135 3131 3127 3122 3118 3114 3109 3105 3100 3095
3123 3122 3122 3120 3121 3123 3121 3121 3123 3126 3124 3123 3119 3124 3128 3128 3130 3132 3135 3138 3140 3141 3143 3145 3145 3148 3149 3148 3147 3145 3143 3138 3135 3132 3129 3126 3122 3118 3114 3110 3105 3100 3096 3092
3119 3116 3116 3115 3116 3115 3113 3116 3118 3116 3118 3118 3116 3117 3121 3123 3124 3127 3130 3133 3135 3137 3138 3139 3140 3142 3142 3142 3140 3138 3135 3132 3130 3128 3126 3123 3118 3115 3110 3105 3101 3096 3092 3088
3113 3111 3110 3107 3111 3111 3106 3106 3109 3112 3112 3112 3112 3112 3116 3119 3120 3122 3124 3127 3128 3131 3134 3136 3137 3138 3138 3137 3136 3133 3131 3130 3128 3125 3122 3118 3115 3111 3106 3101 3097 3092 3088 3084
3107 3107 3108 3101 3106 3105 3100 3096 3101 3103 3105 3108 3107 3110 3111 3113 3114 3116 3118 3120 3122 3126 3129 3131 3134 3135 3135 3133 3132 3131 3129 3127 3123 3120 3117 3114 3110 3105 3101 3097 3092 3088 3083 3080
3096 3102 3105 3100 3104 3102 3091 3093 3093 3096 3100 3101 3102 3104 3106 3108 3110 3111 3113 3115 3118 3121 3126 3129 3131 3131 3131 3130 3128 3127 3126 3122 3119 3116 3113 3109 3105 3102 3097 3093 3088 3084 3079 3076
3092 3097 3097 3098 3098 3091 3084 3088 3091 3091 3092 3095 3096 3097 3100 3103 3103 3106 3109 3111 3116 3120 3124 3127 3128 3128 3126 3125 3124 3123 3121 3118 3116 3113 3108 3105 3101 3098 3093 3089 3084 3079 3075 3070
3083 3087 3092 3091 3088 3085 3073 3083 3089 3090 3085 3087 3090 3092 3095 3096 3097 3102 3105 3107 3110 3116 3122 3123 3123 3122 3122 3121 3121 3120 3117 3115 3111 3107 3104 3101 3098 3094 3090 3086 3080 3076 3071 3066
3075 3077 3078 3080 3080 3073 3070 3078 3082 3084 3073 3085 3087 3088 3089 3090 3094 3098 3099 3102 3108 3113 3116 3117 3117 3118 3119 3119 3118 3116 3113 3110 3106 3103 3101 3098 3094 3090 3086 3081 3076 3072 3067 3063
3071 3073 3069 3070 3072 3068 3064 3069 3076 3074 3076 3079 3083 3083 3083 3085 3088 3092 3096 3100 3104 3106 3108 3110 3111 3116 3116 3115 3113 3111 3108 3105 3103 3100 3098 3094 3090 3086 3082 3078 3073 3068 3064 3059
3061 3064 3063 3066 3060 3061 3063 3064 3067 3069 3071 3074 3076 3078 3079 3080 3083 3089 3092 3096 3100 3102 3104 3107 3108 3111 3112 3110 3108 3106 3105 3102 3100 3097 3094 3091 3087 3083 3078 3074 3070 3066 3061 3055
3049 3052 3051 3053 3047 3048 3055 3059 3061 3062 3065 3068 3070 3073 3075 3076 3080 3084 3089 3092 3098 3103 3105 3106 3105 3106 3106 3104 3104 3103 3101 3099 3096 3094 3090 3087 3084 3080 3075 3071 3067 3063 3058 3052
3042 3042 3040 3038 3036 3040 3044 3049 3053 3055 3059 3061 3064 3066 3069 3073 3077 3079 3081 3085 3094 3095 3103 3101 3102 3102 3101 3101 3100 3099 3098 3096 3093 3091 3088 3084 3081 3077 3073 3069 3065 3060 3055 3048
3034 3032 3031 3025 3030 3031 3036 3042 3045 3047 3052 3056 3059 3062 3068 3075 3073 3075 3080 3085 3086 3094 3098 3098 3098 3097 3097 3097 3096 3096 3095 3093 3091 3088 3085 3082 3078 3075 3072 3067 3063 3058 3051 3045